Location: Newark
(31.7692°N, 106.4397°W)
Time: 02:56:35
(UTC+00:00)

Envisat - Visible Passes

Search period start: 12 December 2019 00:00
Search period end: 22 December 2019 00:00
Orbit: 764 x 766 km, 98.1° (Epoch: 11 December)

Date Brightness Start Highest point End Pass type
(mag) Time Alt. Az. Time Alt. Az. Time Alt. Az.
12 Dec 3.1 01:17:41 10° S 01:22:45 76° WSW 01:27:50 10° NNW visible
13 Dec 3.3 00:41:19 10° SE 00:46:05 44° ENE 00:50:53 10° N visible
13 Dec 5.8 02:22:08 10° SW 02:25:14 16° W 02:28:21 10° NW visible
13 Dec 5.7 12:55:50 10° NE 12:59:49 23° E 13:03:45 10° SSE visible
14 Dec 4.4 01:43:33 10° SSW 01:48:17 40° W 01:53:02 10° NNW visible
15 Dec 2.9 01:06:25 10° SSE 01:11:29 83° ENE 01:16:34 10° N visible
15 Dec 4.5 13:20:35 10° NNE 13:25:25 42° E 13:30:12 10° S visible
16 Dec 3.6 00:30:21 10° SE 00:34:52 34° ENE 00:39:25 10° N visible
16 Dec 5.5 02:10:05 10° SW 02:13:53 21° W 02:17:42 10° NW visible
16 Dec 5.9 12:45:08 10° NE 12:48:28 17° E 12:51:47 10° SE visible
17 Dec 3.8 01:32:03 10° S 01:36:58 52° W 01:41:55 10° NNW visible
18 Dec 3.0 00:55:14 10° SSE 01:00:14 64° ENE 01:05:15 10° N visible
18 Dec 6.2 02:38:24 10° WSW 02:39:35 11° W 02:40:45 10° WNW visible
18 Dec 5.0 13:09:33 10° NE 13:14:06 33° E 13:18:37 10° SSE visible
19 Dec 5.1 01:58:15 10° SSW 02:02:32 28° W 02:06:51 10° NW visible
19 Dec 6.2 12:34:44 10° ENE 12:37:06 13° E 12:39:26 10° ESE visible
20 Dec 3.3 01:20:39 10° S 01:25:41 69° WSW 01:30:45 10° NNW visible
21 Dec 3.2 00:44:08 10° SSE 00:48:59 48° ENE 00:53:52 10° N visible
21 Dec 6.0 02:25:28 10° SW 02:28:12 15° W 02:30:57 10° WNW visible
21 Dec 5.5 12:58:36 10° NE 13:02:46 25° E 13:06:54 10° SSE visible
